Location: Pisa
(43.7170°N, 10.3830°E)
Time: 06:35:34
(UTC+02:00)

ISS - Pass Details

Date: 17 May 2021
Orbit: 417 x 422 km, 51.6° (Epoch: 21 June)

Event Time Altitude Azimuth Distance (km) Brightness Sun altitude
Rises 23:39:44 0° 282° (WNW) 2,365 0.6 -23.1°
Reaches altitude 10° 23:42:08 10° 298° (WNW) 1,503 -0.3 -23.3°
Maximum altitude 23:44:52 22° 352° (N) 968 -1.2 -23.5°
Drops below altitude 10° 23:47:36 10° 46° (NE) 1,507 -0.7 -23.7°
Enters shadow 23:49:48 - 61° (ENE) 2,289 0.1 -23.8°
